Flag for Australia Weather past 2 weeks in Bendigo, Victoria, Australia

Now
46 °F

Cool.


Feels Like: 41 °F
Forecast: 37 / 62 °F
Wind: 9 mph from South

Location: Bendigo Airport Aws

Current Time: Aug 20, 2014 at 9:34:40 PM

Latest Report: Aug 20, 2014 at 8:00 PM


Visibility: N/A

Pressure: 30.33 "Hg

Humidity: 77%

Dew point: 39 °F

Location of BendigoLocation

Historic Weather in Bendigo — Graph

°F

Bendigo temperature yesterday

Maximum temperature yesterday: 59 °F (at 2:00 PM)
Minimum temperature yesterday: 44 °F (at 11:00 PM)
Average temperature yesterday: 51 °F

Past Weeks' High & Low Weather Summary

 TemperatureHumidityPressure
High60 °F (Aug 15, 3:00 PM)99% (Aug 7, 9:00 AM)30.59 "Hg (Aug 7, 9:00 AM)
Low30 °F (Aug 13, 6:00 AM)45% (Aug 15, 3:00 PM)29.94 "Hg (Aug 17, 2:00 PM)
Average47 °F78%30.32 "Hg
* Reported Aug 5 9:00 PM — Aug 20 8:00 PM, Bendigo, Weather by CustomWeather, © 2014

Note: Actual official high and low records may vary slightly from our data, if they occured in-between our weather recording intervals... More about our weather records

Advertising

Bendigo weather history for previous 24 hours

 ConditionsComfort  
Time TempWeatherWind HumidityBarometerVisibility
8:00 PM
Aug 20
46 °FCool.9 mph77%30.33 "HgN/A
6:00 PM50 °FCool.8 mph71%30.30 "HgN/A
5:00 PM54 °FCool.12 mph62%30.29 "HgN/A
3:00 PM55 °FOvercast.8 mph59%30.27 "HgN/A
2:00 PM56 °FRefreshingly cool.8 mph56%30.27 "HgN/A
12:00 PM55 °FCool.9 mph57%30.30 "HgN/A
11:00 AM54 °FCool.10 mph59%30.31 "HgN/A
9:00 AM47 °FCool.12 mph70%30.30 "HgN/A
8:00 AM43 °FQuite cool.10 mph80%30.29 "HgN/A
6:00 AM40 °FChilly.6 mph88%30.26 "HgN/A
5:00 AM41 °FQuite cool.6 mph86%30.25 "HgN/A
3:00 AM42 °FQuite cool.8 mph86%30.24 "HgN/A
2:00 AM42 °FQuite cool.7 mph84%30.25 "HgN/A
12:00 AM44 °FQuite cool.6 mph81%30.25 "HgN/A
11:00 PM
Aug 19
44 °FQuite cool.6 mph83%30.26 "HgN/A
9:00 PM46 °FCool.6 mph79%30.26 "HgN/A
Weather by CustomWeather, © 2014

See weather overviewHow to use our weather pages